Weather in Novocheremshansk

Russia / Ulyanovsk Oblast     54°21′26″N   50°09′42″E
temp.,
°C
wind,
m/s
gust,
m/s
humid.,
%
clouds,
%
prec.,
mm/h
press.,
hPa
HPBL,
m
22 april, thu
thu2201:00+4sse71492100 1.1 1023679
04:00+4s61294100 3.4 1024589
07:00+5s61194100 0.0 1025525
10:00+5s51087100 0.0 1026469
13:00+7sse5974100 0.0 1026586
16:00+11sse796384 0.0 1025863
19:00+9sse61167100 0.0 1025505
22:00+5sse612834 0.0 1026382
23 april, fri
fri2301:00+4sse510928 0.0 1026284
04:00+3sse489445 0.0 1026218
07:00+4sse37905 0.0 1027271
10:00+9se337027 0.0 1026516
13:00+13ese3359100 0.0 1025944
16:00+14ese3456100 0.0 10241215
19:00+12e3567100 0.0 1023125
22:00+9e3576100 0.0 102193
24 april, sat
sat2401:00+8se3676100 0.0 1020132
04:00+8s2596100 0.1 1018193
07:00+7se3792100 1.3 1017439
10:00+8e2489100 1.9 1015275
13:00+8e1288100 0.3 1014267
16:00+8ene1188100 0.4 1013271
19:00+8sse1290100 0.0 101270
22:00+7sse36925 0.1 1011154
25 april, sun
sun2501:00+6se4108966 0.0 1009272
04:00+7s61291100 0.2 1007557
07:00+5w7128464 1.8 1009985
10:00+9wsw71062100 1.9 10111573
13:00+11wsw7941100 0.2 10122508
16:00+12wsw693985 0.2 10132149
19:00+8wnw466726 0.1 1014384
22:00+7ssw3676100 0.4 1015195
26 april, mon
mon2601:00+6sw497773 0.1 1015255
04:00+4sw4881100 0.1 1016232
07:00+5sw41074100 0.0 1017406
10:00+8wsw5847100 0.0 10171132
13:00+11wsw564033 0.0 10161631
16:00+12sw353935 0.0 10141864
19:00+10s47505 0.0 1012248
22:00+7s511621 0.0 1012241